CAPE
1945 1843 2295 1976 2097 1968 1565 2033 2280 2018 2474 2872 2710 2742 2536 2246 2065 2719 2816 2203 1865 2506 2619 2006 2591 2762 2468 1565 1066 1053 1015 993 1069 992 784 1277 2631 2614 2058 2109 2398 2473 1297
2241 2659 2110 1681 1767 1540 1786 1806 1951 2207 2258 2541 2805 2958 2794 2761 2865 2994 2865 2093 2300 2556 2505 2651 2608 2080 2552 3147 2175 2224 1855 2114 1548 2114 1920 1272 2307 3180 2577 3002 2607 2194 1701
2065 1678 1520 1429 1377 1284 1273 1703 1984 2176 1998 1856 2528 2723 2853 2778 2904 3084 3117 2786 2447 2194 2369 2472 2701 2278 2678 2238 2104 1673 1230 1058 1714 1410 1167 978 1174 1379 1800 2887 2826 3245 1824
1317 1501 1839 1390 1362 1229 1855 2183 2235 2795 2358 2266 2322 2437 2654 2728 2801 2903 2977 3000 2842 2580 2577 3107 2818 2314 2352 2299 2119 2346 2354 2332 2580 1751 1440 1056 817 1344 1214 1510 1918 2150 1933
1780 1462 2058 2078 2241 2146 2345 2525 2720 2924 2498 2690 2704 2405 2530 2582 2442 2575 2772 2874 3291 2146 2012 2537 2247 1862 1734 1581 1705 2153 2639 1772 984 878 698 587 432 607 1110 560 856 802 1132
1395 1555 2313 2528 2637 2913 3083 3225 3647 3435 3659 3731 3396 2774 2527 2197 1475 1436 1550 2392 2886 2465 1738 1835 1876 1475 1364 1355 1145 1244 1329 1952 1555 1362 1044 1128 2679 1818 1299 1059 923 745 819
1314 1715 1970 2508 1965 2155 2392 2616 3154 3525 3754 3933 3910 3703 3171 2734 1376 934 1358 2133 1808 1751 2143 2010 1772 1338 914 1024 975 1267 1129 1015 919 1671 1737 1892 2587 2077 2689 1744 2604 2298 1573
1098 1568 1675 1675 1817 1781 1606 2186 3043 2694 3155 3204 3436 3757 3618 2839 1585 1428 1268 1957 1724 1882 1806 1908 2139 1791 1765 1309 1766 1570 1088 756 573 432 879 1683 1827 1366 1182 1190 1678 1851 1942
1641 1764 1498 1379 1822 1419 1342 1711 1871 2821 3151 2948 2653 3305 3066 3014 1629 1512 1231 1697 1409 1677 2227 2983 2683 2445 1411 1295 1205 869 718 485 209 146 169 36 0 0 1 114 501 700 796
1903 1847 2056 2261 1577 1350 1432 2206 2558 2185 2881 2290 2610 2573 1936 2960 1767 1447 1085 1260 1270 1240 2038 2036 1532 1609 1466 1056 462 671 600 559 375 271 357 146 84 144 3 83 502 611 492
1847 2159 1967 1871 2067 2362 2201 1460 1571 2269 2401 2557 2483 2454 2416 1899 1486 865 610 998 1023 1059 1444 1984 1032 909 639 429 355 401 382 369 160 336 301 241 205 325 259 294 596 385 280
1321 1454 1207 1012 928 780 693 630 505 535 911 1070 737 1081 1670 793 415 143 128 94 80 134 281 344 464 404 231 212 123 67 75 50 183 299 369 270 215 214 121 56 31 24 50
474 616 532 611 696 637 516 387 381 328 246 208 277 252 126 91 73 90 134 98 6 20 137 102 73 39 54 70 61 75 42 121 248 303 298 101 13 11 10 16 24 28 26
917 903 750 561 368 374 367 191 93 140 41 77 33 26 25 108 103 52 52 37 7 1 3 13 25 44 80 50 34 60 53 112 130 124 4 16 3 4 0 0 0 10 69
507 493 302 259 19 12 0 6 88 55 80 110 59 107 173 199 235 182 131 144 216 140 59 33 32 74 6 7 17 38 68 39 29 9 6 2 1 2 2 6 7 15 98
30 18 34 18 238 41 6 11 25 40 80 147 49 82 108 130 137 132 144 178 103 127 159 195 58 126 119 37 35 13 8 0 3 3 5 4 2 2 1 3 5 11 17
165 179 216 201 143 101 27 46 95 80 53 58 24 69 138 118 102 131 115 132 146 165 241 423 195 44 19 5 7 6 0 0 0 0 1 0 0 1 0 2 6 8 9
55 74 54 49 47 31 53 56 33 61 37 51 17 19 64 33 3 16 21 37 32 90 83 106 129 99 79 4 0 0 0 0 0 0 0 0 0 0 0 0 2 4 3
19 49 45 64 87 61 57 39 62 48 36 28 35 10 1 6 13 8 9 7 29 33 3 6 0 0 0 0 0 0 0 0 0 0 0 0 0 0 0 0 0 0 0
0 8 3 1 0 0 0 2 3 1 6 10 19 5 4 0 13 32 0 8 16 13 6 2 3 0 0 0 0 0 0 0 0 0 0 0 0 0 0 0 0 0 0
0 0 0 0 0 0 0 0 0 0 0 0 0 0 0 0 0 0 0 63 83 50 41 29 35 42 6 0 0 0 0 0 0 0 0 0 0 0 0 0 0 0 0
0 0 0 0 0 0 0 0 0 0 0 0 0 0 0 0 0 0 0 0 16 46 85 67 41 42 62 40 20 0 0 0 0 0 0 0 0 0 0 0 0 0 0
0 0 0 0 0 0 0 0 0 0 0 0 0 0 0 0 0 0 0 0 0 9 37 53 58 52 63 99 79 46 8 6 0 0 0 0 0 0 0 0 0 0 0
0 0 0 0 0 0 0 0 0 0 0 0 0 0 0 0 0 0 0 0 0 0 2 5 28 60 86 94 140 121 91 36 13 0 0 0 0 0 0 0 0 0 0
0 0 0 0 0 0 0 0 0 0 0 0 0 0 0 0 0 0 1 6 7 5 4 11 14 28 26 72 119 197 111 52 23 15 9 4 4 7 0 5 11 5 1
0 0 0 0 0 0 0 0 2 1 0 0 1 1 1 1 0 1 1 1 1 3 7 4 5 4 1 6 21 16 65 66 41 41 34 17 29 33 21 16 21 22 32
CIN
-32 -32 -18 -20 -11 -12 -5 -0 -0 -0 -0 -0 -0 -0 -0 -0 -1 -0 -0 -0 -0 -0 -0 -0 -0 -0 -0 -0 -0 -0 -0 -0 -0 -5 -2 -0 -0 -0 -0 -0 -0 -0 -0
-32 -15 -48 -36 -27 -20 -11 -1 -0 -0 -0 -0 -0 -0 -0 -0 -0 -0 -0 -0 -0 -0 -0 -0 -0 -0 -0 -0 -0 -0 -0 -0 -0 -0 -0 -0 -0 -0 -0 -0 -0 -0 -0
-39 -71 -52 -43 -37 -31 -23 -7 -0 -0 -0 -0 -0 -0 -0 -0 -0 -0 -0 -0 -0 -0 -0 -0 -0 -0 -0 -0 -0 -0 -0 -0 -0 -0 -0 -0 -0 -0 -0 -0 -0 -0 -0
-50 -69 -52 -52 -49 -50 -15 -2 -3 -0 -0 -0 -0 -0 -0 -0 -0 -0 -0 -0 -0 -0 -0 -0 -0 -0 -0 -0 -0 -0 -0 -0 -0 -0 -0 -0 -0 -0 -0 -0 -1 -3 -8
-8 -39 -33 -44 -28 -24 -4 -1 -0 -0 -0 -0 -0 -0 -0 -0 -0 -0 -0 -0 -0 -0 -0 -0 -0 -2 -1 -7 -1 -0 -0 -0 -0 -0 -0 -0 -0 -0 -0 -0 -0 -0 -0
-5 -28 -16 -17 -11 -0 -0 -0 -0 -0 -0 -0 -0 -0 -0 -0 -2 -7 -6 -0 -0 -0 -0 -0 -0 -4 -13 -22 -37 -36 -21 -0 -0 -0 -0 -0 -0 -0 -0 -0 -0 -0 -0
-0 -0 -4 -2 -29 -17 -5 -0 -0 -0 -0 -0 -0 -0 -0 -0 -6 -16 -17 -2 -0 -0 -0 -0 -0 -0 -4 -0 -4 -6 -27 -35 -31 -4 -0 -0 -0 -0 -0 -0 -0 -0 -0
-25 -1 -7 -4 -2 -4 -9 -0 -0 -0 -0 -0 -0 -0 -0 -0 -4 -12 -24 -8 -0 -0 -0 -0 -0 -0 -0 -4 -0 -0 -4 -20 -24 -20 -4 -0 -0 -0 -0 -0 -0 -0 -0
-5 -0 -2 -31 -16 -65 -62 -2 -3 -0 -0 -0 -0 -0 -0 -0 -4 -14 -38 -5 -2 -1 -0 -0 -0 -0 -1 -12 -8 -16 -20 -41 -53 -126 -115 -157 -0 -0 -3 -53 -0 -0 -0
-7 -11 -0 -0 -0 -40 -81 -12 -0 -0 -0 -0 -0 -0 -0 -0 -2 -18 -41 -4 -0 -1 -0 -0 -3 -1 -0 -1 -9 -12 -19 -17 -65 -59 -31 -60 -90 -36 -4 -15 -1 -0 -2
-14 -0 -0 -0 -0 -0 -0 -4 -0 -0 -0 -0 -0 -0 -0 -1 -1 -39 -49 -16 -8 -3 -0 -0 -0 -0 -9 -5 -6 -19 -32 -39 -108 -42 -36 -16 -36 -10 -10 -1 -0 -6 -32
-9 -1 -5 -0 -0 -3 -0 -16 -61 -0 -0 -0 -0 -0 -0 -16 -35 -27 -25 -27 -47 -46 -3 -4 -1 -8 -17 -12 -24 -107 -99 -45 -54 -31 -10 -32 -32 -18 -5 -17 -53 -37 -47
-73 -52 -46 -4 -0 -4 -31 -12 -0 -0 -0 -0 -0 -0 -7 -0 -3 -42 -25 -29 -120 -146 -9 -55 -54 -39 -30 -4 -36 -54 -202 -104 -12 -18 -30 -98 -116 -7 -0 -0 -65 -77 -94
-0 -0 -0 -1 -0 -0 -0 -0 -25 -55 -28 -10 -13 -0 -1 -0 -3 -55 -63 -14 -33 -17 -23 -24 -11 -59 -12 -2 -14 -114 -100 -41 -72 -44 -105 -112 -0 -0 -0 -0 -0 -12 -72
-0 -0 -1 -9 -22 -14 -0 -0 -23 -18 -4 -4 -3 -0 -0 -0 -0 -1 -22 -10 -0 -9 -51 -3 -0 -22 -0 -0 -5 -51 -69 -85 -99 -10 -0 -0 -0 -0 -0 -0 -0 -30 -109
-27 -81 -50 -23 -0 -34 -6 -1 -3 -1 -10 -4 -44 -14 -0 -21 -42 -23 -6 -14 -50 -54 -50 -44 -103 -28 -21 -58 -42 -73 -113 -0 -0 -0 -0 -0 -0 -0 -0 -0 -0 -0 -14
-0 -0 -0 -0 -0 -3 -20 -2 -0 -4 -7 -43 -44 -33 -25 -10 -6 -18 -16 -27 -16 -4 -0 -1 -52 -107 -84 -104 -13 -4 -0 -0 -0 -0 -0 -0 -0 -0 -0 -0 -0 -0 -0
-0 -0 -0 -2 -2 -13 -25 -33 -0 -0 -0 -0 -11 -17 -7 -36 -38 -17 -15 -13 -3 -0 -0 -4 -9 -23 -25 -9 -0 -0 -0 -0 -0 -0 -0 -0 -0 -0 -0 -0 -0 -0 -0
-8 -5 -2 -0 -0 -0 -0 -0 -1 -1 -2 -5 -1 -2 -1 -14 -35 -29 -74 -18 -28 -18 -22 -5 -0 -0 -0 -0 -0 -0 -0 -0 -0 -0 -0 -0 -0 -0 -0 -0 -0 -0 -0
-2 -32 -43 -10 -0 -0 -1 -0 -2 -1 -12 -3 -2 -7 -3 -0 -17 -4 -0 -16 -52 -8 -0 -2 -2 -0 -0 -0 -0 -0 -0 -0 -0 -0 -0 -0 -0 -0 -0 -0 -0 -0 -0
-0 -0 -0 -0 -0 -0 -0 -0 -0 -0 -0 -0 -0 -0 -0 -0 -0 -0 -0 -0 -2 -0 -0 -0 -0 -0 -0 -0 -0 -0 -0 -0 -0 -0 -0 -0 -0 -0 -0 -0 -0 -0 -0
-0 -0 -0 -0 -0 -0 -0 -0 -0 -0 -0 -0 -0 -0 -0 -0 -0 -0 -0 -0 -0 -0 -0 -0 -0 -0 -0 -0 -0 -0 -0 -0 -0 -0 -0 -0 -0 -0 -0 -0 -0 -0 -0
-0 -0 -0 -0 -0 -0 -0 -0 -0 -0 -0 -0 -0 -0 -0 -0 -0 -0 -0 -0 -0 -0 -0 -0 -0 -0 -0 -0 -0 -0 -0 -0 -0 -0 -0 -0 -0 -0 -0 -0 -0 -0 -0
-0 -0 -0 -0 -0 -0 -0 -0 -0 -0 -0 -0 -0 -0 -0 -0 -0 -0 -0 -0 -0 -0 -0 -0 -0 -0 -0 -0 -1 -0 -0 -0 -0 -0 -0 -0 -0 -0 -0 -0 -0 -0 -0
-0 -0 -0 -0 -0 -0 -0 -0 -0 -0 -0 -0 -0 -0 -0 -0 -0 -0 -0 -0 -0 -0 -0 -0 -0 -0 -1 -0 -1 -0 -2 -1 -6 -3 -2 -9 -2 -10 -0 -0 -0 -0 -0
-0 -0 -0 -0 -0 -0 -0 -0 -0 -0 -0 -0 -0 -0 -0 -0 -0 -0 -0 -0 -0 -0 -0 -0 -0 -0 -0 -2 -1 -8 -23 -38 -25 -17 -9 -1 -0 -0 -0 -0 -0 -0 -0
Wind_Speed
18 20 20 21 21 21 19 21 21 21 22 19 18 16 17 16 16 15 12 10 11 14 15 17 18 19 19 19 21 22 21 20 18 17 22 23 23 22 25 25 23 22 24
24 24 23 22 23 22 22 23 24 25 24 23 21 20 19 18 16 16 17 12 13 12 12 14 16 20 21 23 22 20 21 24 21 15 19 20 22 24 26 24 25 22 20
26 26 25 25 24 20 21 24 26 28 26 26 25 22 21 21 20 17 17 19 16 15 16 16 18 19 21 23 25 23 25 27 29 22 18 21 23 25 26 26 26 23 22
24 25 26 25 25 25 25 27 27 29 29 28 26 25 22 23 23 22 22 23 21 20 18 18 21 23 22 25 28 28 30 29 27 26 22 20 21 22 25 27 28 31 28
32 28 29 27 30 32 31 30 31 32 30 30 29 26 26 26 27 27 26 27 27 23 23 26 27 25 29 26 28 26 27 26 26 25 23 22 21 25 24 23 21 20 24
31 30 29 34 36 36 35 34 33 34 34 35 33 29 29 30 34 39 32 30 28 28 25 25 26 30 33 33 34 32 27 27 24 24 23 21 18 21 24 29 20 19 19
40 35 35 36 36 38 38 38 35 32 33 32 32 32 29 29 33 39 37 27 21 20 18 20 22 25 29 26 35 37 33 31 27 24 19 16 16 20 26 23 24 23 20
41 32 35 39 40 42 45 39 38 37 37 34 32 32 31 29 37 39 38 28 23 20 20 18 19 21 22 24 27 27 29 27 25 27 23 22 22 24 24 25 22 22 21
42 42 37 43 47 50 43 38 36 42 40 39 37 37 37 34 46 42 43 33 26 23 23 24 23 23 36 41 29 26 27 26 29 34 29 nan nan nan nan 24 20 19 19
40 47 49 51 55 51 51 49 47 48 34 44 43 44 43 42 53 52 43 36 29 30 28 25 39 31 41 38 26 30 29 26 35 34 26 27 nan 21 nan nan 21 20 19
64 55 42 45 47 53 54 52 45 43 45 46 47 51 50 52 61 64 58 46 44 44 44 37 38 47 44 36 31 33 39 42 39 31 31 29 26 24 28 22 20 20 22
65 65 65 60 61 59 48 65 69 47 48 52 57 45 56 69 64 64 57 nan nan 38 30 31 40 39 31 30 33 nan nan nan 24 28 23 22 22 25 23 nan nan nan nan
73 66 63 67 65 61 60 57 45 49 52 56 59 48 56 nan nan nan 56 nan nan nan 39 33 nan nan nan nan nan nan nan 28 22 18 23 24 nan nan nan nan nan nan nan
60 57 59 60 51 53 41 39 nan 47 nan nan nan nan nan 70 66 nan nan nan nan nan nan nan nan nan nan nan nan nan nan 28 27 26 nan nan nan nan nan nan nan nan nan
58 51 53 48 nan nan nan nan nan nan nan 33 nan 44 52 55 55 40 45 47 31 25 nan nan nan nan nan nan nan nan nan nan nan nan nan nan nan nan nan nan nan nan nan
nan nan nan nan 43 nan nan nan nan nan nan 23 nan nan 24 42 63 51 32 23 23 17 16 17 nan 20 18 nan nan nan nan nan nan nan nan nan nan nan nan nan nan nan nan
68 56 42 40 36 31 nan nan nan nan nan nan nan nan 34 27 25 16 22 22 20 23 22 23 27 nan nan nan nan nan nan nan nan nan nan nan nan nan nan nan nan nan nan
nan nan nan nan nan nan nan nan nan nan nan nan nan nan nan nan nan nan nan nan nan nan nan 36 40 nan nan nan nan nan nan nan nan nan nan nan nan nan nan nan nan nan nan
nan nan nan nan nan nan nan nan nan nan nan nan nan nan nan nan nan nan nan nan nan nan nan nan nan nan nan nan nan nan nan nan nan nan nan nan nan nan nan nan nan nan nan
nan nan nan nan nan nan nan nan nan nan nan nan nan nan nan nan nan nan nan nan nan nan nan nan nan nan nan nan nan nan nan nan nan nan nan nan nan nan nan nan nan nan nan
nan nan nan nan nan nan nan nan nan nan nan nan nan nan nan nan nan nan nan nan nan nan nan nan nan nan nan nan nan nan nan nan nan nan nan nan nan nan nan nan nan nan nan
nan nan nan nan nan nan nan nan nan nan nan nan nan nan nan nan nan nan nan nan nan nan nan nan nan nan nan nan nan nan nan nan nan nan nan nan nan nan nan nan nan nan nan
nan nan nan nan nan nan nan nan nan nan nan nan nan nan nan nan nan nan nan nan nan nan nan nan nan nan nan nan nan nan nan nan nan nan nan nan nan nan nan nan nan nan nan
nan nan nan nan nan nan nan nan nan nan nan nan nan nan nan nan nan nan nan nan nan nan nan nan nan nan nan nan 55 54 nan nan nan nan nan nan nan nan nan nan nan nan nan
nan nan nan nan nan nan nan nan nan nan nan nan nan nan nan nan nan nan nan nan nan nan nan nan nan nan nan nan 50 50 62 nan nan nan nan nan nan nan nan nan nan nan nan
nan nan nan nan nan nan nan nan nan nan nan nan nan nan nan nan nan nan nan nan nan nan nan nan nan nan nan nan nan nan nan nan nan nan nan nan nan nan nan nan nan nan nan
Wind_Direction
253 260 261 266 265 259 253 253 251 248 256 261 272 274 283 289 297 301 295 281 288 277 266 264 273 275 275 281 287 292 294 296 299 296 289 293 290 307 304 312 324 328 339
255 251 261 263 263 266 262 262 260 257 260 263 268 273 275 282 287 299 304 294 298 289 283 273 273 272 284 287 281 281 285 282 291 297 291 299 302 301 308 313 319 316 325
262 262 257 260 262 264 264 261 260 261 265 266 269 272 275 275 280 284 290 295 295 289 278 284 281 281 280 275 276 283 286 290 294 301 290 296 295 302 306 313 311 309 326
262 264 262 267 272 268 260 260 262 262 262 265 266 270 271 270 278 283 289 290 290 288 285 287 288 287 283 284 288 288 287 288 289 293 294 292 298 296 302 313 316 311 313
254 260 264 264 259 260 261 259 262 264 266 265 266 266 267 268 271 280 281 282 283 285 282 285 294 296 290 284 278 279 280 288 286 287 292 296 301 299 300 301 304 307 293
243 254 255 256 256 256 256 260 258 261 263 266 268 270 269 267 273 278 276 283 291 288 288 287 287 291 293 300 298 296 284 280 282 282 284 288 291 302 306 314 302 301 286
239 239 255 261 258 256 255 252 258 262 263 267 272 275 277 278 273 277 280 281 283 290 286 283 284 285 290 286 293 294 296 297 297 283 281 286 290 294 301 307 315 309 302
216 231 255 256 263 256 251 253 258 260 265 268 272 276 277 278 280 283 284 283 276 275 281 278 280 282 282 284 285 286 280 282 282 281 280 290 292 293 294 294 300 295 300
260 252 246 269 268 267 258 257 253 257 261 267 268 271 276 278 279 281 280 278 278 280 282 285 282 275 278 281 289 286 283 278 280 288 289 nan nan nan nan 295 302 302 284
238 244 249 258 267 269 258 261 247 252 260 259 264 268 269 269 273 268 273 271 274 273 276 277 268 261 277 284 292 284 277 278 271 260 259 277 nan 302 nan nan 301 299 279
247 249 258 257 258 268 268 253 261 252 247 255 259 258 261 260 264 266 267 268 259 256 258 261 274 270 273 278 268 274 266 264 280 253 261 265 266 282 278 273 282 303 290
246 254 258 263 263 264 279 280 246 246 259 256 260 254 268 263 261 266 266 nan nan 260 267 282 280 276 273 270 268 nan nan nan 268 252 248 257 274 275 277 nan nan nan nan
239 243 245 250 257 260 267 270 266 267 264 243 252 246 253 nan nan nan 261 nan nan nan 252 253 nan nan nan nan nan nan nan 271 256 248 253 260 nan nan nan nan nan nan nan
244 245 245 250 252 248 260 249 nan 259 nan nan nan nan nan 253 254 nan nan nan nan nan nan nan nan nan nan nan nan nan nan 240 244 248 nan nan nan nan nan nan nan nan nan
249 245 246 251 nan nan nan nan nan nan nan 272 nan 260 254 249 252 253 255 261 231 225 nan nan nan nan nan nan nan nan nan nan nan nan nan nan nan nan nan nan nan nan nan
nan nan nan nan 250 nan nan nan nan nan nan 256 nan nan 267 262 254 250 243 209 204 217 211 224 nan 236 260 nan nan nan nan nan nan nan nan nan nan nan nan nan nan nan nan
229 241 238 244 240 248 nan nan nan nan nan nan nan nan 278 294 292 247 202 226 237 247 242 258 266 nan nan nan nan nan nan nan nan nan nan nan nan nan nan nan nan nan nan
nan nan nan nan nan nan nan nan nan nan nan nan nan nan nan nan nan nan nan nan nan nan nan 239 240 nan nan nan nan nan nan nan nan nan nan nan nan nan nan nan nan nan nan
nan nan nan nan nan nan nan nan nan nan nan nan nan nan nan nan nan nan nan nan nan nan nan nan nan nan nan nan nan nan nan nan nan nan nan nan nan nan nan nan nan nan nan
nan nan nan nan nan nan nan nan nan nan nan nan nan nan nan nan nan nan nan nan nan nan nan nan nan nan nan nan nan nan nan nan nan nan nan nan nan nan nan nan nan nan nan
nan nan nan nan nan nan nan nan nan nan nan nan nan nan nan nan nan nan nan nan nan nan nan nan nan nan nan nan nan nan nan nan nan nan nan nan nan nan nan nan nan nan nan
nan nan nan nan nan nan nan nan nan nan nan nan nan nan nan nan nan nan nan nan nan nan nan nan nan nan nan nan nan nan nan nan nan nan nan nan nan nan nan nan nan nan nan
nan nan nan nan nan nan nan nan nan nan nan nan nan nan nan nan nan nan nan nan nan nan nan nan nan nan nan nan nan nan nan nan nan nan nan nan nan nan nan nan nan nan nan
nan nan nan nan nan nan nan nan nan nan nan nan nan nan nan nan nan nan nan nan nan nan nan nan nan nan nan nan 265 266 nan nan nan nan nan nan nan nan nan nan nan nan nan
nan nan nan nan nan nan nan nan nan nan nan nan nan nan nan nan nan nan nan nan nan nan nan nan nan nan nan nan 262 261 266 nan nan nan nan nan nan nan nan nan nan nan nan
nan nan nan nan nan nan nan nan nan nan nan nan nan nan nan nan nan nan nan nan nan nan nan nan nan nan nan nan nan nan nan nan nan nan nan nan nan nan nan nan nan nan nan